Flag Weather past 2 weeks in Mysen, Norway

Now
30 °F

Chilly.


Feels Like: 27 °F
Forecast: 31 / 33 °F
Wind: 3 mph from North

Location: Rygge

Current Time: Nov 26, 2014 at 7:39:20 AM

Latest Report: Nov 26, 2014 at 7:00 AM


Visibility: 13 mi

Pressure: 30.32 "Hg

Humidity: 97%

Dew point: 29 °F

Location of MysenLocation

Historic Weather in Mysen — Graph

°F

Mysen temperature yesterday

Maximum temperature yesterday: 42 °F (at 2:00 PM)
Minimum temperature yesterday: 29 °F (at 10:00 PM)
Average temperature yesterday: 36 °F

Past Weeks' High & Low Weather Summary

 TemperatureHumidityPressure
High47 °F (Nov 24, 6:00 AM)100% (Nov 11, 8:00 AM)30.52 "Hg (Nov 11, 8:00 AM)
Low29 °F (Nov 25, 10:00 PM)75% (Nov 24, 9:00 PM)29.69 "Hg (Nov 24, 7:00 AM)
Average40 °F93%30.20 "Hg
* Reported Nov 11 6:00 AM — Nov 26 6:00 AM, Mysen, Weather by CustomWeather, © 2014

Note: Actual official high and low records may vary slightly from our data, if they occured in-between our weather recording intervals... More about our weather records

Advertising

Mysen weather history for previous 24 hours

 ConditionsComfort  
Time TempWeatherWind HumidityBarometerVisibility
6:00 AM
Nov 26
30 °FChilly.2 mph99%30.31 "Hg22 mi
5:00 AM31 °FChilly.3 mph98%30.30 "Hg19 mi
4:00 AM30 °FChilly.3 mph99%30.29 "Hg13 mi
3:00 AM30 °FChilly.1 mph99%30.29 "Hg14 mi
2:00 AM30 °FChilly.2 mph99%30.30 "Hg9 mi
1:00 AM31 °FChilly.2 mph99%30.30 "Hg2 mi
12:00 AM29 °FDuststorm.1 mph99%30.29 "Hg0 mi
11:00 PM
Nov 25
29 °FPassing clouds.2 mph99%30.29 "Hg0 mi
10:00 PM29 °FClear.1 mph99%30.27 "Hg0 mi
9:00 PM30 °FPassing clouds.1 mph98%30.26 "Hg0 mi
8:00 PM31 °FClear.1 mph99%30.25 "Hg0 mi
7:00 PM32 °FClear.1 mph99%30.24 "Hg0 mi
6:00 PM34 °FFog.1 mph96%30.23 "Hg2 mi
5:00 PM36 °FClear.2 mph95%30.21 "Hg8 mi
4:00 PM38 °FClear.3 mph91%30.21 "Hg18 mi
3:00 PM40 °FSunny.1 mph85%30.21 "Hg31 mi
2:00 PM42 °FScattered clouds.5 mph82%30.20 "Hg28 mi
1:00 PM42 °FSunny.2 mph78%30.21 "Hg22 mi
12:00 PM40 °FSunny.2 mph86%30.22 "Hg22 mi
9:00 AM33 °FOvercast.2 mph95%30.19 "Hg12 mi
8:00 AM33 °FPassing clouds.1 mph93%30.17 "Hg31 mi
7:00 AM33 °FPassing clouds.2 mph93%30.15 "Hg28 mi
Weather by CustomWeather, © 2014

See weather overviewHow to use our weather pages